This is the latest recevied weather packets stored in our database for station/object DL6MAA-11. If no packets are shown the sender has not sent any weather packets the latest 10 day(s).
| Time | Temp. | Humidity | Pressure | Rain* | Wind** | Luminosity | Snow |
|---|---|---|---|---|---|---|---|
| 1777113760 | 19.44° C | 36% | 1014.5 hPa | 0 mm | - | 550 W/m² | - |
| 1777113448 | 19.44° C | 36% | 1014.5 hPa | 0 mm | - | 552 W/m² | - |
| 1777113154 | 18.89° C | 35% | 1014.5 hPa | 0 mm | - | 540 W/m² | - |
| 1777112858 | 18.89° C | 39% | 1014.7 hPa | 0 mm | - | 547 W/m² | - |
| 1777112566 | 19.44° C | 39% | 1014.7 hPa | 0 mm | - | 538 W/m² | - |
| 1777112252 | 18.89° C | 41% | 1014.7 hPa | 0 mm | - | 533 W/m² | - |
| 1777111955 | 18.89° C | 38% | 1014.8 hPa | 0 mm | - | 531 W/m² | - |
| 1777111663 | 18.89° C | 37% | 1014.8 hPa | 0 mm | - | 531 W/m² | - |
| 1777111351 | 18.33° C | 38% | 1014.8 hPa | 0 mm | - | 522 W/m² | - |
| 1777111056 | 18.33° C | 40% | 1015 hPa | 0 mm | - | 517 W/m² | - |
| 1777110760 | 17.78° C | 39% | 1015 hPa | 0 mm | - | 434 W/m² | - |
| 1777110457 | 18.33° C | 37% | 1015 hPa | 0 mm | - | 186 W/m² | - |
| 1777110157 | 17.78° C | 39% | 1015.1 hPa | 0 mm | - | 42 W/m² | - |
| 1777109848 | 17.78° C | 39% | 1015.1 hPa | 0 mm | - | 33 W/m² | - |
| 1777109553 | 17.22° C | 41% | 1015.1 hPa | 0 mm | - | 33 W/m² | - |
| 1777109255 | 17.22° C | 39% | 1015.1 hPa | 0 mm | - | 35 W/m² | - |
| 1777108615 | 16.67° C | 38% | 1015.1 hPa | 0 mm | - | 35 W/m² | - |
| 1777108316 | 17.22° C | 38% | 1015 hPa | 0 mm | - | 35 W/m² | - |
| 1777108028 | 16.67° C | 38% | 1015 hPa | 0 mm | - | 33 W/m² | - |
| 1777107730 | 16.11° C | 40% | 1015 hPa | 0 mm | - | 35 W/m² | - |
| 1777107420 | 16.11° C | 40% | 1015 hPa | 0 mm | - | 32 W/m² | - |
| 1777107130 | 16.11° C | 41% | 1015 hPa | 0 mm | - | 37 W/m² | - |
| 1777106832 | 16.11° C | 45% | 1015 hPa | 0 mm | - | 32 W/m² | - |
| 1777106517 | 15.56° C | 40% | 1015.3 hPa | 0 mm | - | 32 W/m² | - |
| 1777106219 | 15.56° C | 42% | 1015.3 hPa | 0 mm | - | 44 W/m² | - |
* Rain since midnight (hover to see other rain measurements)
** Current wind speed in m/s (hover to see current wind gust speed)